sat.trackr.live / text

‹ back to catalog

COSMOS 2416 (RODNIK-S 1)

NORAD 28908 · 2005-048A

PAYLOAD ACTIVE UNKNOWN

§ Identity

Operator
Country
CIS
Launch date
2005-12-21
Launch site
PLMSC
Launch vehicle
Mass (kg)
RCS (m²)
1.53

External: N2YO · Heavens-Above · Gunter

§ Orbital elements

Epoch: 2026-05-25T00:46:53.088960Z

Period
114.69 min
Inclination
82.4677°
Eccentricity
0.0007450
Mean motion
12.55600057 rev/d
Perigee alt
1,435.3 km
Apogee alt
1,447.0 km
Semi-major
7,819.3 km
B*
1.6281e-4
RAAN
322.4707°
Arg perigee
215.5604°
Mean anomaly
313.3930°
Rev number
93,599

§ Raw data

COSMOS 2416 (RODNIK-S 1)1 28908U 05048A   26145.03255890  .00000037  00000+0  16281-3 0  99942 28908  82.4677 322.4707 0007450 215.5604 313.3930 12.55600057935995

JSON: /api/v1/satellites/28908 · /tle

For live sub-satellite position, see the globe view (requires WebGL).

§ Visibility from observer

Set your observer location to see the next 7 days of passes ≥ 10°. The values pass through the URL so the page stays shareable.

No JS? Fill the form by hand. The geolocation button needs JavaScript.